DW2609 Weather Reports


Display with metric or nautical units.
time (UTC)temp
F
wind
direction
speed
MPH
gust
MPH
rain 1hr
in
rain 24hr
in
rain mn
in
humidity
%
barometer
mb
20190122040140 37 11 2.0 4.0 0.00 0.01 0.00 85 1010.2
20190122034715 37 331 1.0 3.0 0.00 0.01 0.00 85 1010.4
20190122033157 38 331 1.0 4.0 0.00 0.01 0.00 85 1010.5
20190122031647 38 340 2.0 6.0 0.00 0.01 0.00 84 1010.6
20190122030131 38 355 2.0 5.0 0.00 0.01 0.00 84 1010.9
20190122024633 38 340 1.0 4.0 0.00 0.01 0.00 84 1011.0
20190122023143 38 355 1.0 4.0 0.00 0.01 0.00 84 1011.4
20190122021630 38 350 0.0 4.0 0.00 0.01 0.00 85 1011.6
20190122020108 38 355 1.0 4.0 0.00 0.01 0.00 85 1011.8
20190122014559 39 338 1.0 4.0 0.00 0.01 0.00 85 1012.0
20190122013112 39 307 1.0 3.0 0.00 0.01 0.00 85 1012.1
20190122011558 39 340 1.0 4.0 0.00 0.01 0.00 85 1012.3
20190122010053 39 309 0.0 3.0 0.00 0.01 0.00 85 1012.4
20190122004621 39 302 0.0 4.0 0.00 0.01 0.00 85 1012.5
20190122003114 39 329 1.0 4.0 0.00 0.01 0.00 85 1012.5
20190122001645 39 5 2.0 5.0 0.00 0.01 0.00 85 1012.8
20190122000054 39 349 1.0 5.0 0.00 0.01 0.00 85 1013.0
20190121234555 39 337 1.0 4.0 0.00 0.01 0.00 85 1013.1
20190121233108 39 343 2.0 5.0 0.00 0.01 0.00 86 1013.3
20190121231622 39 338 2.0 5.0 0.00 0.01 0.00 86 1013.4
20190121230036 39 348 2.0 4.0 0.00 0.01 0.00 87 1013.4
20190121224612 39 339 1.0 4.0 0.00 0.01 0.01 87 1013.5
20190121223025 39 348 1.0 5.0 0.00 0.01 0.01 87 1013.6
20190121221533 39 5 0.0 4.0 0.00 0.01 0.01 88 1013.6
20190121220043 39 11 2.0 6.0 0.00 0.01 0.01 88 1013.6
20190121214541 39 345 1.0 3.0 0.00 0.01 0.01 88 1013.7
20190121213027 39 346 1.0 4.0 0.00 0.01 0.01 89 1013.8
20190121211531 39 346 1.0 5.0 0.00 0.01 0.01 89 1013.9
20190121210048 39 336 1.0 4.0 0.00 0.01 0.01 89 1014.0
20190121204525 39 336 0.0 3.0 0.00 0.01 0.01 89 1014.1
20190121203021 39 320 1.0 3.0 0.00 0.01 0.01 89 1014.1
20190121201543 39 319 0.0 3.0 0.00 0.01 0.01 90 1014.2
20190121200022 39 319 0.0 3.0 0.00 0.01 0.01 90 1014.2
20190121194534 39 321 0.0 3.0 0.00 0.01 0.01 90 1014.1
20190121193028 39 312 0.0 1.0 0.00 0.01 0.01 89 1014.1
20190121191608 39 312 0.0 0.0 0.00 0.01 0.01 89 1014.1
20190121190029 39 312 0.0 0.0 0.00 0.01 0.01 89 1014.2
20190121184536 39 312 0.0 0.0 0.00 0.01 0.01 89 1014.4
20190121183051 39 312 0.0 0.0 0.00 0.01 0.01 89 1014.3
20190121181515 39 312 0.0 0.0 0.00 0.01 0.01 89 1014.2
20190121180034 39 312 0.0 0.0 0.00 0.01 0.01 89 1014.3
20190121174531 39 312 0.0 1.0 0.00 0.01 0.01 88 1014.3
20190121173023 39 36 0.0 1.0 0.00 0.01 0.01 88 1014.4
20190121171513 39 46 0.0 1.0 0.00 0.01 0.01 88 1014.5
20190121170040 39 48 0.0 1.0 0.00 0.01 0.01 88 1014.4
20190121164511 39 350 0.0 1.0 0.00 0.01 0.01 87 1014.4
20190121163021 40 350 0.0 1.0 0.00 0.01 0.01 87 1014.4
20190121161514 40 350 0.0 2.0 0.00 0.01 0.01 87 1014.4
20190121160015 40 350 0.0 4.0 0.00 0.01 0.01 86 1014.6
20190121154507 40 325 1.0 4.0 0.00 0.01 0.01 86 1014.4
20190121153008 40 325 0.0 3.0 0.00 0.01 0.01 86 1014.4
20190121151522 40 325 0.0 3.0 0.00 0.01 0.01 85 1014.4
20190121150007 40 12 2.0 4.0 0.00 0.01 0.01 85 1014.7
20190121144509 40 328 1.0 5.0 0.00 0.01 0.01 85 1014.8
20190121143003 40 342 0.0 3.0 0.00 0.01 0.01 85 1014.7
20190121141505 40 344 1.0 3.0 0.00 0.01 0.01 86 1014.7
20190121140004 40 345 1.0 4.0 0.00 0.01 0.01 87 1015.0
20190121134736 40 351 1.0 5.0 0.00 0.01 0.01 88 1014.8
20190121133151 40 337 2.0 4.0 0.00 0.01 0.01 89 1014.8
20190121131658 40 321 0.0 4.0 0.00 0.01 0.01 89 1014.9
20190121130248 40 321 1.0 4.0 0.00 0.01 0.01 89 1015.0
20190121124639 40 320 1.0 4.0 0.00 0.01 0.01 89 1015.0
20190121123133 40 351 1.0 4.0 0.00 0.01 0.01 89 1015.3
20190121121647 39 350 0.0 2.0 0.00 0.01 0.01 89 1015.4
20190121120141 39 355 0.0 3.0 0.00 0.01 0.01 89 1015.5
20190121114712 39 360 0.0 4.0 0.00 0.01 0.01 89 1015.8
20190121113150 39 360 0.0 4.0 0.00 0.01 0.01 89 1015.8
20190121111658 39 320 0.0 2.0 0.00 0.01 0.01 89 1015.9
20190121110141 39 320 0.0 3.0 0.00 0.01 0.01 89 1016.0
20190121104627 39 320 1.0 4.0 0.00 0.01 0.01 89 1016.1
20190121103203 39 319 0.0 3.0 0.01 0.01 0.01 88 1016.2
20190121101628 39 355 1.0 5.0 0.01 0.01 0.01 88 1016.4
20190121100142 39 331 1.0 4.0 0.01 0.01 0.01 87 1016.5
20190121094625 39 330 0.0 3.0 0.01 0.01 0.01 87 1016.4
20190121093127 39 330 0.0 3.0 0.00 0.00 0.00 86 1016.4
20190121091612 39 342 1.0 4.0 0.00 0.00 0.00 86 1016.4
20190121090109 39 342 1.0 3.0 0.00 0.00 0.00 87 1016.5
20190121084559 39 360 1.0 3.0 0.00 0.00 0.00 86 1016.3
20190121083043 39 360 0.0 2.0 0.00 0.00 0.00 87 1016.1
20190121081640 39 360 0.0 1.0 0.00 0.00 0.00 87 1016.1
20190121080143 38 344 0.0 2.0 0.00 0.00 0.00 87 1016.1
20190121074553 38 344 0.0 1.0 0.00 0.00 0.00 87 1016.0
20190121073138 38 344 0.0 1.0 0.00 0.00 0.00 88 1016.0
20190121071556 38 344 0.0 0.0 0.00 0.00 0.00 88 1016.0
20190121070125 38 344 0.0 0.0 0.00 0.00 0.00 88 1015.8
20190121064549 38 344 0.0 1.0 0.00 0.00 0.00 88 1015.6
20190121063035 38 344 0.0 1.0 0.00 0.00 0.00 88 1015.6
20190121061534 38 344 0.0 0.0 0.00 0.00 0.00 89 1015.5
20190121060137 38 344 0.0 0.0 0.00 0.00 0.00 89 1015.5
20190121054546 38 344 0.0 0.0 0.00 0.00 0.00 89 1015.5
20190121053046 38 344 0.0 0.0 0.00 0.00 0.00 89 1015.5
20190121051531 38 344 0.0 0.0 0.00 0.00 0.00 89 1015.5
20190121050112 38 344 0.0 0.0 0.00 0.00 0.00 88 1015.4
20190121044604 38 344 0.0 0.0 0.00 0.00 0.00 88 1015.4
20190121043039 38 344 0.0 0.0 0.00 0.00 0.00 88 1015.6
20190121041542 38 344 0.0 0.0 0.00 0.00 0.00 88 1015.6